Location: Kalberh�ni
(46.4610°N, 7.2453°E)
Time: 07:47:24
(UTC+00:00)

Cosmos 1455 - Pass Details

Date: 01 November 2021
Orbit: 496 x 520 km, 82.5° (Epoch: 27 November)

Event Time Altitude Azimuth Distance (km) Brightness Sun altitude
Rises 17:02:43 0° 166° (SSE) 2,607 5.8 -8.6°
Reaches altitude 10° 17:04:58 10° 157° (SSE) 1,722 4.7 -8.9°
Maximum altitude 17:08:23 34° 92° (E) 861 2.8 -9.5°
Drops below altitude 10° 17:11:48 10° 27° (NNE) 1,723 4.5 -10.1°
Sets 17:14:03 0° 18° (NNE) 2,609 5.5 -10.5°
